GW1213 Weather Reports


time (UTC)temp
F
wind
direction
speed
knots
gust
knots
rain 1hr
in
rain 24hr
in
rain mn
in
humidity
%
barometer
mb
20260901012035 80 0 0.0 0.0 0.00 0.00 0.00 86 1017.3
20260901011558 80 0 0.0 0.0 0.00 0.00 0.00 86 1017.2
20260901011037 80 0 0.0 0.0 0.00 0.00 0.00 85 1017.2
20260901010535 80 0 0.0 0.0 0.00 0.00 0.00 85 1017.2
20260901010116 80 0 0.0 0.0 0.00 0.00 0.00 85 1017.3
20260901005535 80 0 0.0 0.0 0.00 0.00 0.00 86 1017.2
20260901005038 80 0 0.0 0.0 0.00 0.00 0.00 84 1017.1
20260901004603 80 0 0.0 0.0 0.00 0.00 0.00 84 1017.1
20260901004037 80 0 0.0 0.0 0.00 0.00 0.00 85 1017.1
20260901003539 80 0 0.0 0.0 0.00 0.00 0.00 84 1017.1
20260901003059 80 0 0.0 0.0 0.00 0.00 0.00 84 1017.0
20260901002538 81 0 0.0 0.0 0.00 0.00 0.00 84 1017.0
20260901002038 81 0 0.0 0.0 0.00 0.00 0.00 85 1017.1
20260901001559 81 0 0.0 0.0 0.00 0.00 0.00 84 1017.0
20260901001041 81 0 0.0 0.0 0.00 0.00 0.00 83 1017.0
20260901000537 81 0 0.0 0.0 0.00 0.00 0.00 82 1017.0
20260901000058 81 0 0.0 0.0 0.00 0.00 0.00 84 1017.0
20260831235537 81 0 0.0 0.0 0.00 0.00 0.00 83 1016.8
20260831235038 82 0 0.0 0.0 0.00 0.00 0.00 83 1017.0
20260831234604 82 0 0.0 0.0 0.00 0.00 0.00 84 1016.9
20260831234038 82 0 0.0 0.0 0.00 0.00 0.00 83 1017.0
20260831233539 82 0 0.0 0.0 0.00 0.00 0.00 82 1017.1
20260831233116 82 0 0.0 0.0 0.00 0.00 0.00 81 1017.1
20260831232535 83 0 0.0 0.0 0.00 0.00 0.00 81 1017.1
20260831232037 83 0 0.0 0.0 0.00 0.00 0.00 82 1017.2
20260831231559 83 0 0.0 0.0 0.00 0.00 0.00 82 1017.2
20260831231040 83 0 0.0 0.0 0.00 0.00 0.00 80 1017.2
20260831230537 83 0 0.0 0.0 0.00 0.00 0.00 79 1017.3
20260831230114 83 0 0.0 0.0 0.00 0.00 0.00 80 1017.4
20260831225535 83 0 0.0 0.0 0.00 0.00 0.00 79 1017.3
20260831225040 83 0 0.0 0.0 0.00 0.00 0.00 77 1017.3
20260831224602 83 0 0.0 0.0 0.00 0.00 0.00 78 1017.4
20260831224040 83 0 0.0 0.0 0.00 0.00 0.00 77 1017.4
20260831223540 84 0 0.0 0.0 0.00 0.00 0.00 79 1017.4
20260831223109 84 0 0.0 0.0 0.00 0.00 0.00 81 1017.4
20260831222536 84 0 0.0 0.0 0.00 0.00 0.00 80 1017.3
20260831222038 85 0 0.0 0.0 0.00 0.00 0.00 79 1017.4
20260831221601 85 0 0.0 0.0 0.00 0.00 0.00 77 1017.4
20260831221037 85 0 0.0 0.0 0.00 0.00 0.00 74 1017.4
20260831220536 85 0 0.0 0.0 0.00 0.00 0.00 75 1017.5
20260831220053 85 0 0.0 0.0 0.00 0.00 0.00 75 1017.6
20260831215538 86 0 0.0 0.0 0.00 0.00 0.00 74 1017.6
20260831215036 86 0 0.0 0.0 0.00 0.00 0.00 73 1017.4
20260831214610 86 0 0.0 0.0 0.00 0.00 0.00 71 1017.3
20260831214037 86 0 0.0 0.0 0.00 0.00 0.00 71 1017.3
20260831213534 86 0 0.0 0.0 0.00 0.00 0.00 72 1017.2
20260831213059 86 0 0.0 0.0 0.00 0.00 0.00 71 1017.3
20260831212538 86 0 0.0 0.0 0.00 0.00 0.00 71 1017.3
20260831212036 86 0 0.0 0.0 0.00 0.00 0.00 71 1017.2
20260831211557 86 0 0.0 0.0 0.00 0.00 0.00 70 1017.2
20260831211037 87 0 0.0 0.9 0.00 0.00 0.00 69 1017.2
20260831210537 87 0 0.0 0.9 0.00 0.00 0.00 70 1017.2
20260831210103 88 0 0.0 1.7 0.00 0.00 0.00 68 1017.2
20260831205536 88 0 0.0 1.7 0.00 0.00 0.00 69 1017.2
20260831205036 88 0 0.0 0.9 0.00 0.00 0.00 69 1017.2
20260831204608 88 0 0.0 0.0 0.00 0.00 0.00 69 1017.2
20260831204039 88 0 0.0 0.0 0.00 0.00 0.00 69 1017.2
20260831203537 88 0 0.0 0.0 0.00 0.00 0.00 69 1017.1
20260831203112 88 0 0.0 0.0 0.00 0.00 0.00 70 1017.2
20260831202534 88 0 0.0 0.9 0.00 0.00 0.00 68 1017.2
20260831202037 87 0 0.0 2.6 0.00 0.00 0.00 68 1017.3
20260831201554 87 0 0.0 2.6 0.00 0.00 0.00 69 1017.3
20260831201037 87 62 0.0 2.6 0.00 0.00 0.00 69 1017.3
20260831200534 87 0 0.0 3.5 0.00 0.00 0.00 70 1017.3
20260831200110 87 85 0.9 3.5 0.00 0.00 0.00 68 1017.3
20260831195535 87 39 0.9 3.5 0.00 0.00 0.00 71 1017.3
20260831195038 86 32 0.9 3.5 0.00 0.00 0.00 72 1017.4
20260831194637 86 28 0.9 2.6 0.00 0.00 0.00 71 1017.3
20260831194037 86 41 0.0 2.6 0.00 0.00 0.00 71 1017.4
20260831193538 86 0 0.0 7.0 0.00 0.00 0.00 70 1017.4
20260831193100 87 59 1.7 7.0 0.00 0.00 0.00 70 1017.5
20260831192538 87 0 0.0 0.0 0.00 0.00 0.00 71 1017.5
20260831192036 86 0 0.0 0.0 0.00 0.00 0.00 70 1017.6
20260831191602 86 0 0.0 0.0 0.00 0.00 0.00 71 1017.6
20260831191040 86 0 0.0 0.0 0.00 0.00 0.00 71 1017.7
20260831190537 86 0 0.0 1.7 0.00 0.00 0.00 72 1017.7
20260831190109 86 0 0.0 2.6 0.00 0.00 0.00 69 1017.7
20260831185535 86 360 0.9 2.6 0.00 0.00 0.00 71 1017.7
20260831185035 86 0 0.0 4.3 0.00 0.00 0.00 70 1017.7
20260831184601 87 38 1.7 6.1 0.00 0.00 0.00 69 1017.6
20260831184035 87 76 2.6 6.1 0.00 0.00 0.00 69 1017.6
20260831183536 87 0 0.0 4.3 0.00 0.00 0.00 67 1017.6
20260831183106 87 48 1.7 4.3 0.00 0.00 0.00 68 1017.6
20260831182536 88 0 0.9 4.3 0.00 0.00 0.00 66 1017.6
20260831182036 88 71 2.6 4.3 0.00 0.00 0.00 63 1017.7
20260831181607 89 0 0.0 3.5 0.00 0.00 0.00 63 1017.8
20260831181037 89 0 0.9 3.5 0.00 0.00 0.00 64 1017.8
20260831180536 89 0 0.0 2.6 0.00 0.00 0.00 66 1017.9
20260831180114 89 0 0.0 3.5 0.00 0.00 0.00 65 1017.9
20260831175537 88 127 0.9 3.5 0.00 0.00 0.00 64 1017.8
20260831175037 88 127 0.9 2.6 0.00 0.00 0.00 65 1018.0
20260831174603 88 0 0.9 2.6 0.00 0.00 0.00 65 1018.0
20260831174036 88 332 0.0 1.7 0.00 0.00 0.00 66 1018.0
20260831173541 88 0 0.0 2.6 0.00 0.00 0.00 68 1018.1
20260831173059 88 0 0.0 4.3 0.00 0.00 0.00 68 1018.1
20260831172536 87 72 0.0 4.3 0.00 0.00 0.00 70 1018.1
20260831172037 87 98 0.9 4.3 0.00 0.00 0.00 70 1018.2
20260831171600 87 38 0.0 2.6 0.00 0.00 0.00 70 1018.3
20260831171036 87 49 0.0 3.5 0.00 0.00 0.00 68 1018.4
20260831170536 87 0 0.0 3.5 0.00 0.00 0.00 69 1018.5
20260831170104 87 72 0.9 3.5 0.00 0.00 0.00 67 1018.5
20260831165537 88 80 0.9 3.5 0.00 0.00 0.00 67 1018.5
20260831165037 88 39 0.9 2.6 0.00 0.00 0.00 69 1018.6
20260831164600 88 40 0.9 2.6 0.00 0.00 0.00 67 1018.7
20260831164035 88 84 0.0 0.9 0.00 0.00 0.00 67 1018.7
20260831163537 88 0 0.0 3.5 0.00 0.00 0.00 66 1018.7
20260831163102 88 0 0.0 4.3 0.00 0.00 0.00 68 1018.8
20260831162537 88 62 0.0 4.3 0.00 0.00 0.00 67 1018.8
20260831162034 87 0 0.0 1.7 0.00 0.00 0.00 68 1018.8
20260831161606 87 0 0.9 2.6 0.00 0.00 0.00 68 1018.7
20260831161037 87 335 0.9 2.6 0.00 0.00 0.00 68 1018.7
20260831160538 86 0 0.0 2.6 0.00 0.00 0.00 70 1018.8
20260831155537 86 287 0.0 1.7 0.00 0.00 0.00 71 1018.7
20260831155035 86 345 0.9 2.6 0.00 0.00 0.00 70 1018.7
20260831154617 86 347 0.0 2.6 0.00 0.00 0.00 70 1018.7
20260831154038 86 0 0.0 2.6 0.00 0.00 0.00 71 1018.9
20260831153540 86 0 0.0 3.5 0.00 0.00 0.00 72 1018.8
20260831153059 85 254 0.9 3.5 0.00 0.00 0.00 73 1018.7
20260831152538 84 0 0.9 2.6 0.00 0.00 0.00 73 1018.8
20260831152034 84 0 0.0 1.7 0.00 0.00 0.00 74 1018.7
20260831151617 84 360 0.9 1.7 0.00 0.00 0.00 73 1018.7
20260831151038 84 0 0.9 1.7 0.00 0.00 0.00 74 1018.6
20260831150540 84 32 0.9 2.6 0.00 0.00 0.00 75 1018.7
20260831150100 84 73 0.0 6.1 0.00 0.00 0.00 74 1018.6
20260831145538 84 38 2.6 6.1 0.00 0.00 0.00 75 1018.5
20260831145037 84 28 0.9 2.6 0.00 0.00 0.00 77 1018.5
20260831144601 83 352 0.0 4.3 0.00 0.00 0.00 75 1018.6
20260831144037 83 0 0.9 4.3 0.00 0.00 0.00 76 1018.6
20260831143536 83 67 0.9 4.3 0.00 0.00 0.00 76 1018.5
20260831143055 83 0 0.0 2.6 0.00 0.00 0.00 76 1018.6
20260831142536 82 0 0.0 2.6 0.00 0.00 0.00 77 1018.7
20260831142037 83 351 0.9 2.6 0.00 0.00 0.00 76 1018.7
20260831141557 83 0 0.0 0.0 0.00 0.00 0.00 76 1018.5
20260831141040 82 0 0.0 0.0 0.00 0.00 0.00 77 1018.6
20260831140535 82 0 0.0 0.0 0.00 0.00 0.00 77 1018.4
20260831140059 82 0 0.0 0.0 0.00 0.00 0.00 77 1018.4
20260831135537 82 0 0.0 0.0 0.00 0.00 0.00 78 1018.4
20260831135039 81 0 0.0 0.0 0.00 0.00 0.00 79 1018.5
20260831134602 81 0 0.0 0.0 0.00 0.00 0.00 79 1018.5
20260831134035 81 0 0.0 0.0 0.00 0.00 0.00 79 1018.6
20260831133537 80 0 0.0 0.0 0.00 0.00 0.00 80 1018.7
20260831133103 80 0 0.0 0.0 0.00 0.00 0.00 81 1018.7
20260831132537 79 0 0.0 0.0 0.00 0.00 0.00 83 1018.7
20260831132035 78 0 0.0 0.0 0.00 0.00 0.00 84 1018.8
20260831131615 78 0 0.0 0.0 0.00 0.00 0.00 85 1018.8
20260831131036 78 0 0.0 0.0 0.00 0.00 0.00 86 1018.8
20260831130537 77 0 0.0 0.0 0.00 0.00 0.00 85 1019.0
20260831130112 77 0 0.0 0.0 0.00 0.00 0.00 86 1018.9
20260831125538 77 0 0.0 0.0 0.00 0.00 0.00 87 1018.9
20260831125036 77 0 0.0 0.0 0.00 0.00 0.00 88 1018.9
20260831124610 76 0 0.0 0.0 0.00 0.00 0.00 90 1018.9
20260831124037 76 0 0.0 0.0 0.00 0.00 0.00 90 1018.9
20260831123535 75 0 0.0 0.0 0.00 0.00 0.00 92 1018.9
20260831123100 75 0 0.0 0.0 0.00 0.00 0.00 93 1018.9
20260831122536 74 0 0.0 0.0 0.00 0.00 0.00 94 1018.8
20260831122037 74 0 0.0 0.0 0.00 0.00 0.00 94 1018.8
20260831121601 73 0 0.0 0.0 0.00 0.00 0.00 94 1018.7
20260831121037 73 0 0.0 1.7 0.00 0.00 0.00 95 1018.7
20260831120537 73 0 0.0 1.7 0.00 0.00 0.00 95 1018.6
20260831120109 73 0 0.0 0.9 0.00 0.00 0.00 96 1018.5
20260831115537 73 0 0.0 0.9 0.00 0.00 0.00 96 1018.5
20260831115036 73 0 0.0 0.0 0.00 0.00 0.00 97 1018.6
20260831114601 72 0 0.0 0.0 0.00 0.00 0.00 97 1018.6
20260831114037 72 0 0.0 0.0 0.00 0.00 0.00 98 1018.6
20260831113535 72 0 0.0 0.0 0.00 0.00 0.00 98 1018.6
20260831113107 71 0 0.0 0.0 0.00 0.00 0.00 97 1018.4
20260831112538 71 0 0.0 0.0 0.00 0.00 0.00 97 1018.4
20260831112043 71 0 0.0 0.0 0.00 0.00 0.00 97 1018.3
20260831111554 71 0 0.0 0.0 0.00 0.00 0.00 97 1018.1
20260831111036 71 0 0.0 0.0 0.00 0.00 0.00 96 1018.2
20260831110536 70 0 0.0 0.0 0.00 0.00 0.00 96 1018.2
20260831110107 70 0 0.0 0.0 0.00 0.00 0.00 96 1018.2
20260831105538 70 0 0.0 0.0 0.00 0.00 0.00 96 1018.1
20260831105038 70 0 0.0 0.0 0.00 0.00 0.00 96 1017.9
20260831104611 70 0 0.0 0.0 0.00 0.00 0.00 96 1017.8
20260831104038 71 0 0.0 0.0 0.00 0.00 0.00 96 1017.7
20260831103537 71 0 0.0 0.0 0.00 0.00 0.00 96 1017.7
20260831103059 71 0 0.0 0.0 0.00 0.00 0.00 97 1017.7
20260831102537 71 0 0.0 0.0 0.00 0.00 0.00 96 1017.6
20260831102036 70 0 0.0 0.0 0.00 0.00 0.00 96 1017.5
20260831101607 70 0 0.0 0.0 0.00 0.00 0.00 96 1017.5
20260831101036 70 0 0.0 0.0 0.00 0.00 0.00 96 1017.6
20260831100535 70 0 0.0 0.0 0.00 0.00 0.00 96 1017.6
20260831100127 70 0 0.0 0.0 0.00 0.00 0.00 96 1017.6
20260831095535 70 0 0.0 0.0 0.00 0.00 0.00 96 1017.6
20260831095035 70 0 0.0 0.0 0.00 0.00 0.00 96 1017.6
20260831094559 70 0 0.0 0.0 0.00 0.00 0.00 96 1017.7
20260831094035 70 0 0.0 0.0 0.00 0.00 0.00 96 1017.7
20260831093536 71 0 0.0 0.0 0.00 0.00 0.00 96 1017.7
20260831093108 71 0 0.0 0.0 0.00 0.00 0.00 96 1017.6
20260831092536 71 0 0.0 0.0 0.00 0.00 0.00 96 1017.6
20260831092036 71 0 0.0 0.0 0.00 0.00 0.00 96 1017.6
20260831091603 71 0 0.0 0.0 0.00 0.00 0.00 96 1017.6
20260831091036 71 0 0.0 0.0 0.00 0.00 0.00 96 1017.5
20260831090538 71 0 0.0 0.0 0.00 0.00 0.00 96 1017.6
20260831090107 71 0 0.0 0.0 0.00 0.00 0.00 96 1017.6
20260831085538 71 0 0.0 0.0 0.00 0.00 0.00 96 1017.6
20260831085039 71 0 0.0 0.0 0.00 0.00 0.00 95 1017.7
20260831084610 71 0 0.0 0.0 0.00 0.00 0.00 96 1017.6
20260831084038 71 0 0.0 0.0 0.00 0.00 0.00 95 1017.6
20260831083541 71 0 0.0 0.0 0.00 0.00 0.00 95 1017.6
20260831083102 71 0 0.0 0.0 0.00 0.00 0.00 95 1017.5
20260831082536 71 0 0.0 0.0 0.00 0.00 0.00 95 1017.4
20260831082039 71 0 0.0 0.0 0.00 0.00 0.00 95 1017.5
20260831081606 71 0 0.0 0.0 0.00 0.00 0.00 95 1017.4
20260831081036 71 0 0.0 0.0 0.00 0.00 0.00 95 1017.5
20260831080535 71 0 0.0 0.0 0.00 0.00 0.00 95 1017.4
20260831080108 71 0 0.0 0.0 0.00 0.00 0.00 95 1017.4
20260831075537 72 0 0.0 0.0 0.00 0.00 0.00 95 1017.3
20260831075034 72 0 0.0 0.0 0.00 0.00 0.00 95 1017.4
20260831074601 72 0 0.0 0.0 0.00 0.00 0.00 95 1017.5
20260831074036 72 0 0.0 0.0 0.00 0.00 0.00 95 1017.5
20260831073540 72 0 0.0 0.0 0.00 0.00 0.00 95 1017.5
20260831073105 72 0 0.0 0.0 0.00 0.00 0.00 95 1017.4
20260831072537 72 0 0.0 0.0 0.00 0.00 0.00 95 1017.3
20260831072038 72 0 0.0 0.0 0.00 0.00 0.00 95 1017.3
20260831071558 72 0 0.0 0.0 0.00 0.00 0.00 95 1017.3
20260831071037 72 0 0.0 0.0 0.00 0.00 0.00 95 1017.3
20260831070535 72 0 0.0 0.0 0.00 0.00 0.00 95 1017.3
20260831070115 72 0 0.0 0.0 0.00 0.00 0.00 95 1017.2
20260831065540 72 0 0.0 0.0 0.00 0.00 0.00 95 1017.3
20260831065039 72 0 0.0 0.0 0.00 0.00 0.00 95 1017.4
20260831064556 72 0 0.0 0.0 0.00 0.00 0.00 95 1017.5
20260831064037 72 0 0.0 0.0 0.00 0.00 0.00 95 1017.3
20260831063539 72 0 0.0 0.0 0.00 0.00 0.00 95 1017.3
20260831063101 72 0 0.0 0.0 0.00 0.00 0.00 95 1017.4
20260831062537 72 0 0.0 0.0 0.00 0.00 0.00 95 1017.4
20260831062037 72 0 0.0 0.0 0.00 0.00 0.00 95 1017.5
20260831061601 72 0 0.0 0.0 0.00 0.00 0.00 94 1017.5
20260831061036 73 0 0.0 0.0 0.00 0.00 0.00 94 1017.6
20260831060536 73 0 0.0 0.0 0.00 0.00 0.00 94 1017.6
20260831055537 73 0 0.0 0.0 0.00 0.00 0.00 94 1017.6
20260831055036 73 0 0.0 0.0 0.00 0.00 0.00 94 1017.6
20260831054602 73 0 0.0 0.0 0.00 0.00 0.00 94 1017.7
20260831054037 73 0 0.0 0.0 0.00 0.00 0.00 94 1017.8
20260831053540 73 0 0.0 0.0 0.00 0.00 0.00 94 1017.7
20260831053104 73 0 0.0 0.0 0.00 0.00 0.00 93 1017.8
20260831052538 74 0 0.0 0.0 0.00 0.00 0.00 93 1017.8
20260831052037 74 0 0.0 0.0 0.00 0.00 0.00 93 1017.9
20260831051558 74 0 0.0 0.0 0.00 0.00 0.00 93 1018.0
20260831051037 74 0 0.0 0.0 0.00 0.00 0.00 93 1018.0
20260831050536 74 0 0.0 0.0 0.00 0.00 0.00 93 1018.0
20260831050107 74 0 0.0 0.0 0.00 0.00 0.00 93 1018.0
20260831045536 74 0 0.0 0.0 0.00 0.00 0.00 93 1018.1
20260831045037 74 0 0.0 0.0 0.00 0.00 0.00 93 1018.0
20260831044610 74 0 0.0 0.0 0.00 0.00 0.00 92 1018.0
20260831044037 74 0 0.0 0.0 0.00 0.00 0.00 93 1017.8
20260831043536 74 0 0.0 0.0 0.00 0.00 0.00 92 1017.9
20260831043101 75 0 0.0 0.0 0.00 0.00 0.00 92 1017.8
20260831042540 75 0 0.0 0.0 0.00 0.00 0.00 92 1017.8
20260831042036 75 0 0.0 0.0 0.00 0.00 0.00 92 1017.8
20260831041605 75 0 0.0 0.0 0.00 0.00 0.00 92 1017.9
20260831041040 75 0 0.0 0.0 0.00 0.00 0.00 92 1018.0
20260831040538 74 0 0.0 0.0 0.00 0.00 0.00 92 1018.1
20260831040101 74 0 0.0 0.0 0.00 0.00 0.00 92 1018.1
20260831035541 74 0 0.0 0.0 0.00 0.00 0.00 92 1018.0
20260831035037 74 0 0.0 0.0 0.00 0.00 0.00 92 1018.0
20260831034559 74 0 0.0 0.0 0.00 0.00 0.00 93 1018.1
20260831034037 74 0 0.0 0.0 0.00 0.00 0.00 92 1018.3
20260831033537 74 0 0.0 0.0 0.00 0.00 0.00 92 1018.4
20260831033101 74 0 0.0 0.0 0.00 0.00 0.00 92 1018.6
20260831032537 74 0 0.0 0.0 0.00 0.00 0.00 92 1018.6
20260831032035 74 0 0.0 0.0 0.00 0.00 0.00 92 1018.6
20260831031603 74 0 0.0 0.0 0.00 0.00 0.00 92 1018.7
20260831031037 74 0 0.0 0.0 0.00 0.00 0.00 92 1018.6
20260831030539 74 0 0.0 0.0 0.00 0.00 0.00 92 1018.7
20260831030107 74 0 0.0 0.0 0.00 0.00 0.00 92 1018.8
20260831025537 74 0 0.0 0.0 0.00 0.00 0.00 93 1018.9
20260831025038 74 0 0.0 0.0 0.00 0.00 0.00 92 1018.9
20260831024615 74 0 0.0 0.0 0.00 0.00 0.00 92 1019.0
20260831024037 74 0 0.0 0.0 0.00 0.00 0.00 92 1019.0
20260831023537 74 0 0.0 1.7 0.00 0.00 0.00 92 1018.9
20260831023106 74 0 0.0 1.7 0.00 0.00 0.00 91 1018.9
20260831022536 74 0 0.0 0.0 0.00 0.00 0.00 91 1018.9
20260831022035 74 0 0.0 0.0 0.00 0.00 0.00 91 1018.8
20260831021605 74 0 0.0 0.0 0.00 0.00 0.00 91 1018.8
20260831021040 74 0 0.0 0.0 0.00 0.00 0.00 90 1018.8
20260831020538 74 0 0.0 0.0 0.00 0.00 0.00 90 1018.8
20260831020110 74 0 0.0 0.0 0.00 0.00 0.00 90 1018.8
20260831015537 74 0 0.0 0.0 0.00 0.00 0.00 90 1018.7
20260831015037 74 0 0.0 0.0 0.00 0.00 0.00 90 1018.7
20260831014615 74 0 0.0 0.0 0.00 0.00 0.00 91 1018.8
20260831014037 74 0 0.0 0.0 0.00 0.00 0.00 91 1018.7
20260831013536 74 0 0.0 0.0 0.00 0.00 0.00 90 1018.7
20260831013104 74 0 0.0 0.0 0.00 0.00 0.00 90 1018.8
20260831012535 74 0 0.0 0.0 0.00 0.00 0.00 90 1018.8